Weather History for Zvartnots, Armenia

Change the Weather History Date:

Saturday, February 16, 2013

  Actual Average Record
Temperature  
Mean Temperature 42 °F -  
Max Temperature 51 °F - - ()
Min Temperature 33 °F - - ()
Degree Days  
Heating Degree Days 23    
Moisture  
Dew Point 34 °F    
Average Humidity 82    
Maximum Humidity 100    
Minimum Humidity 47    
Precipitation  
Precipitation 0.00 in - - ()
Sea Level Pressure  
Sea Level Pressure 29.82 in    
Wind  
Wind Speed 2 mph ()    
Max Wind Speed 9 mph    
Max Gust Speed 18 mph    
Visibility 4.3 miles    
Events Rain , Thunderstorm    
T = Trace of Precipitation, MM = Missing Value Source: Averaged Metar Reports

Daily Weather History Graph

Daily Weather History Graph

Search for Another Location

Airport:

Trip Planner

Search our weather history database for the weather conditions in past years. The results will help you decide how hot, cold, wet, or windy it might be!

Date:

Astronomy

Feb. 16, 2013 Rise Set
Actual Time 7:54 AM AMT 6:39 PM AMT
Civil Twilight 7:26 AM AMT 7:06 PM AMT
Nautical Twilight 6:54 AM AMT 7:38 PM AMT
Astronomical Twilight 6:23 AM AMT 8:10 PM AMT
Moon 10:52 AM AMT (2/16) 12:18 AM AMT (2/16)
Length of Visible Light 11h 40m
Length of Day
10h 44m
Waxing Crescent, 36% of the Moon is Illuminated
Feb 16
Waxing Crescent
Feb 18
First Quarter
Feb 26
Full
Mar 5
Last Quarter
Mar 11
New

Hourly Weather History & Observations

Time (AMT) Temp. Windchill Dew Point Humidity Pressure Visibility Wind Dir Wind Speed Gust Speed Precip Events Conditions
12:00 AM 35.6 °F - 32.0 °F 87% 29.86 in 3.7 mi Calm Calm - N/A   Mostly Cloudy
12:30 AM 33.8 °F - 32.0 °F 93% 29.83 in 3.7 mi Calm Calm - N/A   Mostly Cloudy
1:00 AM 33.8 °F - 32.0 °F 93% 29.83 in 3.7 mi Calm Calm - N/A   Mostly Cloudy
1:30 AM 33.8 °F - 32.0 °F 93% 29.83 in 3.7 mi Calm Calm - N/A   Mostly Cloudy
2:00 AM 33.8 °F - 32.0 °F 93% 29.83 in 3.7 mi Calm Calm - N/A   Mostly Cloudy
2:30 AM 33.8 °F - 32.0 °F 93% 29.80 in 3.7 mi Calm Calm - N/A   Mostly Cloudy
3:00 AM 35.6 °F - 32.0 °F 87% 29.80 in 3.7 mi Calm Calm - N/A   Mostly Cloudy
3:30 AM 33.8 °F - 32.0 °F 93% 29.80 in 2.2 mi Calm Calm - N/A   Mostly Cloudy
4:00 AM 33.8 °F - 32.0 °F 93% 29.80 in 2.2 mi Variable 2.2 mph - N/A   Mostly Cloudy
4:30 AM 33.8 °F - 32.0 °F 93% 29.80 in 2.2 mi Variable 2.2 mph - N/A   Mostly Cloudy
5:00 AM 33.8 °F 29.7 °F 33.8 °F 100% 29.80 in 2.2 mi Variable 4.5 mph - N/A   Mostly Cloudy
5:30 AM 33.8 °F - 32.0 °F 93% 29.80 in 2.2 mi Variable 2.2 mph - N/A   Mostly Cloudy
6:00 AM 33.8 °F - 32.0 °F 93% 29.80 in 2.2 mi Calm Calm - N/A   Mostly Cloudy
6:30 AM 33.8 °F - 32.0 °F 93% 29.80 in 2.2 mi Calm Calm - N/A   Mostly Cloudy
7:00 AM 33.8 °F - 33.8 °F 100% 29.80 in 2.2 mi Calm Calm - N/A   Mostly Cloudy
7:30 AM 33.8 °F - 33.8 °F 100% 29.80 in 2.2 mi Variable 2.2 mph - N/A   Mostly Cloudy
8:00 AM 35.6 °F - 33.8 °F 93% 29.80 in 1.4 mi Variable 2.2 mph - N/A   Mostly Cloudy
8:30 AM 35.6 °F 31.8 °F 33.8 °F 93% 29.80 in 1.4 mi SW 4.5 mph - N/A   Mostly Cloudy
9:00 AM 37.4 °F 33.9 °F 35.6 °F 93% 29.80 in 1.4 mi WSW 4.5 mph - N/A   Mostly Cloudy
9:30 AM 37.4 °F - 35.6 °F 93% 29.83 in 1.4 mi Calm Calm - N/A   Mostly Cloudy
10:00 AM 39.2 °F - 35.6 °F 87% 29.83 in 1.4 mi Calm Calm - N/A   Mostly Cloudy
10:30 AM 39.2 °F 34.4 °F 37.4 °F 93% 29.83 in 2.2 mi East 6.7 mph - N/A Rain Light Rain
11:00 AM 44.6 °F 42.3 °F 39.2 °F 81% 29.83 in 2.2 mi Variable 4.5 mph - N/A   Mostly Cloudy
11:30 AM 48.2 °F - 37.4 °F 66% 29.83 in 3.7 mi Variable 2.2 mph - N/A   Mostly Cloudy
12:00 PM 48.2 °F - 37.4 °F 66% 29.83 in 6.2 mi Variable 4.5 mph - N/A   Mostly Cloudy
12:30 PM 48.2 °F - 35.6 °F 62% 29.83 in 6.2 mi Calm Calm - N/A   Mostly Cloudy
1:30 PM 50.0 °F - 37.4 °F 62% 29.80 in 6.2 mi Variable 2.2 mph - N/A   Mostly Cloudy
2:00 PM 51.8 °F - 33.8 °F 50% 29.80 in 6.2 mi Calm Calm - N/A   Mostly Cloudy
2:30 PM 51.8 °F - 32.0 °F 47% 29.80 in 6.2 mi Variable 2.2 mph - N/A   Mostly Cloudy
3:00 PM 51.8 °F - 32.0 °F 47% 29.80 in 6.2 mi SW 6.7 mph - N/A   Mostly Cloudy
3:30 PM 51.8 °F - 32.0 °F 47% 29.80 in 6.2 mi SW 8.9 mph - N/A   Mostly Cloudy
4:00 PM 51.8 °F - 32.0 °F 47% 29.80 in 6.2 mi West 6.7 mph - N/A   Mostly Cloudy
4:30 PM 51.8 °F - 32.0 °F 47% 29.80 in 6.2 mi WNW 4.5 mph - N/A Rain , Thunderstorm Light Rain Showers
5:00 PM 44.6 °F 40.8 °F 32.0 °F 61% 29.83 in 6.2 mi North 6.7 mph 17.9 mph N/A Rain , Thunderstorm Rain Showers
5:30 PM 44.6 °F 42.3 °F 37.4 °F 76% 29.80 in 6.2 mi Variable 4.5 mph - N/A   Mostly Cloudy
6:00 PM 46.4 °F 44.4 °F 37.4 °F 71% 29.80 in 6.2 mi Variable 4.5 mph - N/A   Mostly Cloudy
6:30 PM 44.6 °F 42.3 °F 39.2 °F 81% 29.80 in 6.2 mi Variable 4.5 mph - N/A   Mostly Cloudy
7:00 PM 42.8 °F - 37.4 °F 81% 29.83 in 6.2 mi Variable 2.2 mph - N/A   Mostly Cloudy
7:30 PM 42.8 °F - 37.4 °F 81% 29.83 in 6.2 mi Calm Calm - N/A   Mostly Cloudy
8:00 PM 39.2 °F 36.0 °F 35.6 °F 87% 29.83 in 6.2 mi Variable 4.5 mph - N/A   Mostly Cloudy
8:30 PM 39.2 °F - 35.6 °F 87% 29.83 in 6.2 mi Variable 2.2 mph - N/A   Partly Cloudy
9:00 PM 37.4 °F - 33.8 °F 87% 29.83 in 6.2 mi Calm Calm - N/A   Partly Cloudy
9:30 PM 35.6 °F - 33.8 °F 93% 29.83 in 6.2 mi Calm Calm - N/A   Partly Cloudy
10:00 PM 35.6 °F - 33.8 °F 93% 29.86 in 6.2 mi Variable 2.2 mph - N/A   Clear
10:30 PM 35.6 °F - 32.0 °F 87% 29.86 in 6.2 mi Variable 2.2 mph - N/A   Clear
11:00 PM 33.8 °F - 32.0 °F 93% 29.86 in 6.2 mi Variable 2.2 mph - N/A   Clear
11:30 PM 35.6 °F 31.8 °F 32.0 °F 87% 29.86 in 6.2 mi Variable 4.5 mph - N/A   Clear